Location: Unspecified
(44.0704°N, 88.6889°W)
Time: 08:02:07
(UTC+02:00)

CZ-3 Stage 3 - Pass Details

Date: 31 March 2019
Orbit: 493 x 34698 km, 30.5° (Epoch: 24 April)

Event Time Altitude Azimuth Distance (km) Brightness Sun altitude
Exits shadow 08:23:46 12° 121° (ESE) 5,269 6.5 -41.5°
Maximum altitude 08:28:26 13° 104° (ESE) 6,590 7.2 -41.4°
Drops below altitude 10° 08:42:15 10° 82° (E) 10,941 8.5 -40.9°
Sets 09:59:53 0° 68° (ENE) 27,685 11.2 -34.7°
